sat.trackr.live / text

‹ back to catalog

YAOGAN-31 02A

NORAD 47532 · 2021-007A

PAYLOAD ACTIVE UNKNOWN

§ Identity

Operator
Country
PRC
Launch date
2021-01-29
Launch site
JSC
Launch vehicle
Mass (kg)
RCS (m²)

External: N2YO · Heavens-Above · Gunter

§ Orbital elements

Epoch: 2026-09-14T23:27:11.514240Z

Period
107.03 min
Inclination
63.4016°
Eccentricity
0.0183692
Mean motion
13.45453484 rev/d
Perigee alt
951.9 km
Apogee alt
1,226.2 km
Semi-major
7,467.2 km
B*
2.1491e-4
RAAN
272.3547°
Arg perigee
0.8151°
Mean anomaly
359.3140°
Rev number
27,631

§ Raw data

YAOGAN-31 02A1 47532U 21007A   26257.97721660  .00000051  00000+0  21491-3 0  99962 47532  63.4016 272.3547 0183692   0.8151 359.3140 13.45453484276312

JSON: /api/v1/satellites/47532 · /tle

For live sub-satellite position, see the globe view (requires WebGL).

§ Visibility from observer

Set your observer location to see the next 7 days of passes ≥ 10°. The values pass through the URL so the page stays shareable.

No JS? Fill the form by hand. The geolocation button needs JavaScript.